Regional Weather Roundup
Issued by NWS Sterling, VA

Home | Current Version | Previous Version | Graphics & Text | Print | Product List | Glossary On
Versions: 1 2 3 4 5 6 7 8 9 10 11 12 13 14 15 16 17 18 19 20 21 22 23 24 25 26 27 28 29 30 31 32 33 34 35 36 37 38 39 40 41 42 43 44 45 46 47 48 49 50
000
ASUS41 KLWX 290510
RWRLWX

REGIONAL WEATHER ROUNDUP
NATIONAL WEATHER SERVICE BALTIMORE MD/WASHINGTON DC
100 AM EDT SAT AUG 29 2015

Note: "FAIR" indicates few or no clouds below 12,000 feet
with no significant weather and/or obstructions to visibility.
 TC=TEMPERATURE CELSIUS

 * =Non NWS site. Station does not report precipitation (e.g. rain,
    snow, etc.), thunder, or fog.

DCZ001-MDZ009-015-VAZ040>042-051-053>054-290600-
WASHINGTON METRO

CITY           SKY/WX    TMP DP  RH WIND       PRES   REMARKS
WASHINGTON NAT MOCLDY    72  60  66 S3        30.21S
DULLES         MOCLDY    70  61  73 S3        30.21R
ANDREWS AFB    CLOUDY    67  59  75 S5        30.20S
FT BELVOIR     PTCLDY    65  62  91 CALM      30.21R
QUANTICO       CLOUDY    74  57  55 SW6       30.22R
COLLEGE PARK*  MOCLDY    64  63  94 CALM      30.21R
LEESBURG*      CLOUDY    68  64  88 CALM      30.23R
MANASSAS*      CLOUDY    70  64  83 CALM      30.21R
GAITHERSBURG*  MOCLDY    63  57  82 CALM      30.26R

$$

MDZ006>007-011-014-290600-
BALTIMORE METRO

CITY           SKY/WX    TMP DP  RH WIND       PRES   REMARKS
BWI AIRPORT    PTCLDY    62  59  90 CALM      30.21R
MD SCIENCE CTR   N/A     73  59  61 MISG      30.21R
MARTIN STATE   CLEAR     64  64 100 CALM      30.21S
ANNAPOLIS      CLEAR     71  64  78 N3        30.19F
FORT MEADE*    CLEAR     59  57  94 CALM      30.23S

$$

MDZ012-015-019>023-290600-
MARYLAND EASTERN SHORE

CITY           SKY/WX    TMP DP  RH WIND       PRES   REMARKS
OCEAN CITY     CLEAR     60  57  89 CALM      30.21R
SALISBURY      CLEAR     61  57  87 CALM      30.21R
BAY BRIDGE AP*   N/A     70  63  78 SE3       30.20F

$$

MDZ017>025-290600-
SOUTHERN MARYLAND

CITY           SKY/WX    TMP DP  RH WIND       PRES   REMARKS
PATUXENT RIVER PTCLDY    67  61  81 S5        30.20S
ST INIGOES     PTCLDY    64  61  90 CALM      30.20R
LEONARDTOWN*   CLOUDY    66  59  77 CALM      30.22S

$$

MDZ003>005-290600-
NORTH CENTRAL MARYLAND

CITY           SKY/WX    TMP DP  RH WIND       PRES   REMARKS
FREDERICK*     NOT AVBL
HAGERSTOWN APT CLEAR     69  56  62 CALM      30.21S
WESTMINSTER*   CLEAR     70  57  64 CALM      30.22S

$$

MDZ501>502-290600-
WESTERN MARYLAND

CITY           SKY/WX    TMP DP  RH WIND       PRES   REMARKS
OAKLAND*       CLEAR     59  54  82 S6        30.26F
CUMBERLAND*    CLEAR     64  61  88 N5        30.24R

$$

VAZ025>031-290600-
SHENANDOAH VALLEY

CITY           SKY/WX    TMP DP  RH WIND       PRES   REMARKS
WINCHESTER*    PTCLDY    64  61  88 CALM      30.20S
FRONT ROYAL*   FAIR      64  61  88 CALM      30.19S
LURAY*         MOCLDY    66  61  82 CALM      30.21S
NEW MARKET*    MOCLDY    64  62  91 CALM      30.20S
STAUNTON*      CLOUDY    71  62  73 SW3       30.24S
WAYNESBORO*    MOCLDY    68  60  74 CALM      30.24R

$$

WVZ021-048>050-054>055-290600-
EASTERN WEST VIRGINIA PANHANDLE

CITY           SKY/WX    TMP DP  RH WIND       PRES   REMARKS
MARTINSBURG    CLEAR     63  59  87 CALM      30.21R
PETERSBURG*    CLEAR     61  59  94 CALM      30.21S

$$

VAZ036>039-050-290600-
CENTRAL FOOTHILLS

CITY           SKY/WX    TMP DP  RH WIND       PRES   REMARKS
CHARLOTTESVILL MOCLDY    72  61  68 S5        30.21S
CULPEPER*      MOCLDY    65  63  94 CALM      30.22S
ORANGE*        CLOUDY    68  63  83 S3        30.23S
GORDONSVILLE*  MOCLDY    66  64  94 CALM      30.21S
WARRENTON*     MOCLDY    66  64  91 CALM      30.21S

$$

VAZ055>057-290600-
NORTH AND CENTRAL PIEDMONT

CITY           SKY/WX    TMP DP  RH WIND       PRES   REMARKS
FREDERICKSBRG* MOCLDY    69  62  78 CALM      30.20S
STAFFORD*      PTCLDY    62  60  94 CALM      30.25R

$$

NCZ024-NYZ072-PAZ021-071-VAZ022-071-290600-
OTHER REGIONAL OBSERVATIONS

CITY           SKY/WX    TMP DP  RH WIND       PRES   REMARKS
NEW YORK CITY  CLEAR     70  52  52 N3        30.22F
PHILADELPHIA   CLEAR     69  59  70 CALM      30.21R
PITTSBURGH     PTCLDY    63  55  75 CALM      30.18S
ROANOKE        PTCLDY    68  62  81 CALM      30.24R
RICHMOND       CLEAR     68  59  73 CALM      30.21R
RALEIGH        MOCLDY    68  61  78 CALM      30.21R

$$

ANZ530>537-290600-
MARINE OBSERVATIONS

STATION/POSITION TIME  TEMP    WIND        PRES
                       AIR SEA DIR/SP/G
                 (UTC) (F)     (DEG/KT/KT) (MB)
THOMAS PT LIGHT  NOT AVBL

$$



USA.gov is the U.S. government's official web portal to all federal, state and local government web resources and services.